Hourly Weather Roundup
Issued by NWS Central Illinois

Home | Current Version | Previous Version | Text Only | Print | Product List | Glossary On
Versions: 1 2 3 4 5 6 7 8 9 10 11 12 13 14 15 16 17 18 19 20 21 22 23 24 25 26 27 28 29 30 31 32 33 34 35 36 37 38 39 40 41 42 43 44 45 46 47 48 49 50
000
NZUS43 KILX 301010
HWRILX

AREA WEATHER ROUNDUP
NATIONAL WEATHER SERVICE, LINCOLN IL
500 AM CDT THU OCT 30 2014


CITY           SKY/WX    TMP DP  RH WIND       PRES   REMARKS
BLOOMINGTON    CLEAR     33  31  93 S6        30.15F WCI  27
CHAMPAIGN      CLEAR     32  31  96 CALM      30.16S
DECATUR        CLEAR     33  30  88 CALM      30.16F
FLORA          CLEAR     34  34 100 CALM      30.18S
GALESBURG      PTCLDY    30  30 100 CALM      30.13R
JACKSONVILLE   CLEAR     39  34  84 S3        30.15R
LACON          CLEAR     28  26  92 CALM      30.13S
LAWRENCEVILLE  CLEAR     36  32  85 CALM      30.18R FOG
LITCHFIELD     CLEAR     36  33  87 SE6       30.15F WCI  31
$$


CITY           SKY/WX    TMP DP  RH WIND       PRES   REMARKS
LINCOLN        CLEAR     32  30  94 CALM      30.15F
MACOMB         CLEAR     31  29  94 CALM      30.15S
MATTOON        CLEAR     34  31  88 CALM      30.15F
MT CARMEL AP   CLEAR     36  36 100 CALM      30.18R FOG
OLNEY-NOBLE AP CLEAR     34  34 100 CALM      30.18S
PARIS          CLEAR     32  32  99 CALM      30.18R
PEORIA         CLEAR     36  32  85 S3        30.14F
PONTIAC        CLEAR     31  30  96 CALM      30.15S
RANTOUL        CLEAR     34  32  92 CALM      30.16S
ROBINSON         N/A     35  35 100 CALM      30.19S FOG
SPRINGFIELD    CLEAR     36  32  85 S3        30.16S
TAYLORVILLE    CLEAR     34  32  93 S3        30.16R
$$

...REGIONAL REPORTS...


CITY           SKY/WX    TMP DP  RH WIND       PRES   REMARKS
CHICAGO O`HARE PTCLDY    35  30  82 CALM      30.13S
KANKAKEE       CLEAR     32  31  96 CALM      30.16S
MOLINE         MOCLDY    32  29  88 CALM      30.12S
MOUNT VERNON   CLEAR     32  27  80 CALM      30.17S
PITTSFIELD     CLEAR     37  34  89 SE5       30.14F WCI  33
QUINCY         PTCLDY    38  32  79 SE7       30.12F WCI  33
ROCKFORD       PTCLDY    31  28  89 CALM      30.15R
$$


CITY           SKY/WX    TMP DP  RH WIND       PRES   REMARKS
BURLINGTON     PTCLDY    36  34  92 CALM      30.12S
CEDAR RAPIDS   MOCLDY    34  33  96 S5        30.09S WCI  30
DES MOINES     CLOUDY    44  34  67 E6        30.04F
KIRKSVILLE     PTCLDY    38  35  89 SE7       30.09F WCI  33
OTTUMWA        CLOUDY    40  34  79 SE7       30.08F
ST LOUIS       PTCLDY    39  35  86 E6        30.15S WCI  35
$$


CITY           SKY/WX    TMP DP  RH WIND       PRES   REMARKS
TERRE HAUTE    CLEAR     33  32  96 CALM      30.17S
EVANSVILLE     CLEAR     38  34  85 CALM      30.18R
INDIANAPOLIS   CLEAR     36  31  82 W3        30.15S
LAFAYETTE      CLEAR     32  31  96 CALM      30.16S FOG
MADISON        PTCLDY    33  30  88 CALM      30.10S
MILWAUKEE      MOCLDY    36  30  79 CALM      30.11S
$$





USA.gov is the U.S. government's official web portal to all federal, state and local government web resources and services.